Location: San Vito
(41.8833°N, 12.9833°E)
Time: 00:53:47
(UTC+00:00)

Daily predictions for brighter satellites

Satellite Brightness Start Highest point End
(mag) Time Altitude Azimuth Time Altitude Azimuth Time Altitude Azimuth
Cosmos 2082 Rocket 3.9 02:43:40 27° NE 02:43:40 27° NE 02:46:10 10° NNE
Lacrosse 5 3.7 03:03:27 24° NNE 03:03:27 24° NNE 03:05:31 10° NE
NOSS 3-3 (A) 4.4 03:04:18 54° SE 03:04:45 55° ESE 03:11:01 10° NE
NOSS 3-3 (C) 4.4 03:04:22 53° SE 03:04:52 54° ESE 03:11:07 10° NE
MSX 4.3 02:59:39 10° NNE 03:04:16 55° NE 03:04:16 55° NE
CZ-2C R/B 3.2 03:08:59 10° NNE 03:13:40 47° E 03:13:43 47° E
SL-16 R/B 4.1 03:10:33 13° N 03:14:22 25° NE 03:18:58 10° ESE
Cosmos 839 Rocket 4.0 03:17:29 79° NW 03:17:29 79° NW 03:23:42 10° NNE
ASTEX 1 4.4 03:13:00 10° SSE 03:17:43 46° ENE 03:22:28 10° N
Cosmos 1980 Rocket 2.2 03:19:58 76° ESE 03:19:58 76° ESE 03:25:17 10° SSE
Cosmos 2322 Rocket 4.1 03:19:06 11° N 03:23:30 25° NE 03:28:07 10° ESE
CZ-4C R/B 4.5 03:32:39 13° N 03:32:39 13° N 03:34:42 10° N
SJ 16-02 1.8 03:37:49 54° NE 03:37:49 54° NE 03:41:19 10° NNE
Cosmos 1605 Rocket 3.8 03:37:03 66° WSW 03:37:26 68° W 03:43:34 10° N
ATLAS 2AS CENTAUR R/B 3.9 03:31:58 17° NNW 03:37:29 42° NE 03:44:10 10° ESE
COSMO-SKYMED 1 4.4 03:36:32 10° SE 03:40:16 29° ENE 03:44:02 10° N
Centaur D AC-28 3.9 03:39:07 23° SSW 03:41:14 28° SSE 03:53:20 10° ESE
OAO 2 Rocket 4.1 03:41:35 38° S 03:41:46 39° S 03:46:28 10° ESE
Cosmos 1898 Rocket 3.4 03:41:11 61° SSW 03:42:09 88° WNW 03:47:27 10° NNE
CZ-4B R/B 4.3 03:38:04 10° NNE 03:42:35 70° ESE 03:47:01 10° S
BREEZE-M DEB (TANK) 4.4 03:49:06 13° NE 03:49:06 13° NE 03:49:25 10° NE
Cosmos 1937 Rocket 3.4 03:46:35 11° SSW 03:51:29 81° ESE 03:56:38 10° NNE
STARLINK-80 4.2 03:57:51 41° NNE 03:57:51 41° NNE 04:00:43 10° NE
COBE Rocket 4.1 03:52:56 10° SSE 03:58:05 79° ENE 04:03:11 10° N
Cosmos 1697 Rocket 4.5 04:01:42 15° SSW 04:01:42 15° SSW 04:02:55 10° SSW
Cosmos 1892 2.9 03:56:46 10° S 04:00:31 68° E 04:04:16 10° NNE
SL-4 R/B 3.5 03:59:44 29° NNW 04:01:05 34° NNE 04:05:30 10° E
Meteor 1-31 Rocket 4.4 03:57:51 10° N 03:59:27 24° N 03:59:27 24° N
Cosmos 2058 4.4 04:05:29 25° N 04:05:29 25° N 04:07:21 10° N
Cosmos 858 Rocket 4.3 04:02:57 14° SSW 04:07:28 70° WNW 04:12:39 10° NNE
Cosmos 1484 Rocket 3.2 04:03:52 10° NNE 04:07:52 66° E 04:11:51 10° S
Gbstr 26 Del rocket 3.4 04:09:01 37° N 04:09:01 37° N 04:12:07 10° NE
STARLINK-45 4.2 04:07:29 26° SSW 04:09:34 54° SE 04:13:36 10° ENE
Okean O Rocket 3.4 04:06:42 10° NNE 04:10:37 32° E 04:14:31 10° SSE
STARLINK-76 4.3 04:10:03 22° SSW 04:12:31 52° SE 04:16:33 10° ENE
STARLINK 4.3 04:11:40 21° SSW 04:14:10 54° SE 04:18:14 10° ENE
STARLINK-32 4.2 04:13:17 21° SSW 04:15:51 56° SE 04:19:55 10° ENE
STARLINK-40 4.1 04:14:54 21° SSW 04:17:31 57° SE 04:21:36 10° ENE
Cosmos 1356 Rocket 4.2 04:19:35 34° WSW 04:19:35 34° WSW 04:22:41 10° SSW
Cosmos 1459 Rocket 3.9 04:13:01 10° S 04:19:11 85° W 04:25:31 10° N
STARLINK-44 4.1 04:16:31 20° SSW 04:19:12 60° SE 04:23:17 10° ENE
Cosmos 1825 3.6 04:16:44 10° SSE 04:20:15 39° E 04:23:47 10° NNE
STARLINK-36 4.0 04:18:07 20° SW 04:20:51 62° SE 04:24:57 10° ENE
In-Cosmos 22 Rocket 4.0 04:16:37 10° SSW 04:21:55 64° WNW 04:27:23 10° N
STARLINK-48 3.8 04:22:30 42° NW 04:22:58 44° NNW 04:26:43 10° NE
Cosmos 2082 Rocket 3.5 04:25:34 22° NW 04:25:34 22° NW 04:29:25 10° N
STARLINK-35 3.8 04:24:28 18° SW 04:27:25 70° SE 04:31:33 10° ENE
Cosmos 2016 Rocket 4.2 04:21:13 10° S 04:27:26 78° E 04:33:46 10° N
SKYMED 2 3.5 04:23:54 10° SSE 04:28:14 85° WSW 04:32:36 10° NNW
Abrixas rocket 2.7 04:27:37 27° SSW 04:28:53 50° SSE 04:31:49 10° ENE
STARLINK-51 3.8 04:26:06 18° SW 04:29:07 73° SE 04:33:16 10° NE
SJ-12 3.9 04:24:58 10° NNE 04:29:08 85° ESE 04:33:17 10° SSW
CZ-4B DEB 4.3 04:24:34 10° NNE 04:30:04 81° ESE 04:35:33 10° SSW
Cosmos 1151 Rocket 3.3 04:25:52 10° N 04:30:15 69° E 04:34:34 10° SSE
STARLINK-30 3.7 04:27:43 17° SW 04:30:48 75° SE 04:34:56 10° NE
OAO 3 Rocket 4.2 04:28:50 21° WSW 04:31:25 35° S 04:35:46 10° ESE
Cosmos 1328 Rocket 3.6 04:27:33 10° N 04:31:54 78° E 04:36:12 10° S
STARLINK-33 3.7 04:29:18 17° SW 04:32:26 77° SE 04:36:35 10° NE
STARLINK-50 3.7 04:30:53 16° SW 04:34:05 80° SE 04:38:14 10° NE
Cosmos 372 Rocket 4.1 04:30:21 10° SSW 04:35:30 79° ESE 04:40:39 10° NNE
Cosmos 158 Rocket 4.4 04:34:12 23° NW 04:36:34 37° WSW 04:41:00 10° SSW
STARLINK-56 3.6 04:34:04 16° SW 04:37:23 85° SE 04:41:32 10° NE
Starlink (trailer) 3.6 04:35:50 15° SW 04:39:13 87° SE 04:43:23 10° NE
STARLINK-38 3.6 04:37:18 15° SW 04:40:44 90° SE 04:44:53 10° NE
STARLINK-26 3.5 04:38:43 17° WSW 04:41:45 79° NW 04:45:52 10° NE
STARLINK-65 3.5 04:38:56 14° SW 04:42:26 88° NNW 04:46:36 10° NE
MOS 1-B 4.3 04:37:42 10° N 04:43:29 70° WNW 04:49:13 10° SSW
Cosmos 2298 Rocket 3.9 04:38:50 10° SSW 04:44:09 78° WNW 04:49:29 10° NNE
Lacrosse 5 3.4 04:42:40 17° NW 04:44:22 20° NNW 04:48:02 10° NNE
COSMOS 2487 2.3 04:42:20 10° SSW 04:45:46 87° WNW 04:49:15 10° NNE
STARLINK-61 3.7 04:43:27 21° WSW 04:45:55 56° NNW 04:49:54 10° NE
COSMOS 2455 2.8 04:40:32 11° NW 04:46:15 65° WSW 04:52:10 10° SSE
Tsikada Rocket 4.4 04:40:25 10° N 04:46:49 71° E 04:53:07 10° SSE
Cosmos 2100 Rocket 4.2 04:41:04 10° SSW 04:47:00 48° WNW 04:52:57 10° N
PSLV R/B 4.2 04:43:30 10° N 04:47:07 38° WNW 04:50:46 10° SW
STARLINK-69 3.5 04:43:45 13° WSW 04:47:24 80° NW 04:51:33 10° NE
NOSS 3-4 (A) 4.1 04:41:35 10° NNW 04:48:40 76° NE 04:56:26 10° SE
NOSS 3-4 (C) 4.1 04:41:41 10° NNW 04:48:46 76° NE 04:56:31 10° SE
STARLINK-66 3.5 04:45:21 12° WSW 04:49:05 79° NW 04:53:15 10° NE
STARLINK-41 3.5 04:46:52 12° WSW 04:50:41 77° NW 04:54:50 10° NE
CZ-2C R/B 3.6 04:48:04 10° NNW 04:51:32 20° WNW 04:53:04 17° W
STARLINK-64 3.5 04:48:32 12° WSW 04:52:21 74° NW 04:56:30 10° NE
SL-08 R/B 4.4 04:47:04 10° S 04:53:12 80° W 04:59:19 10° N
Cosmos 1408 Rocket 3.5 04:49:08 10° SSW 04:53:22 57° W 04:57:39 10° N
ATLAS CENTAUR R/B 1.7 04:49:05 10° SW 04:53:59 70° NW 04:58:48 10° NNE
STARLINK-70 3.5 04:50:05 11° WSW 04:54:01 72° NW 04:58:09 10° NE
Cosmos 1048 Rocket 4.5 04:48:56 10° NNW 04:54:18 65° ENE 04:59:36 10° SSE
STARLINK-68 3.6 04:51:54 11° WSW 04:55:47 67° NW 04:59:55 10° NE
STARLINK-58 3.6 04:53:10 11° WSW 04:57:12 68° NW 05:01:20 10° NE
Cosmos 2360 Rocket 2.6 04:52:02 10° NNW 04:57:41 66° ENE 05:03:19 10° SSE
SL-16 R/B 2.4 04:53:16 10° NNW 04:58:46 53° WSW 05:04:15 10° S
STARLINK-62 3.6 04:55:04 11° WSW 04:59:05 64° NW 05:03:13 10° NE
Cosmos 1500 Rocket 3.9 04:55:19 10° S 04:59:45 73° E 05:04:12 10° NNE
STARLINK-63 3.6 04:56:34 10° WSW 05:00:40 64° NW 05:04:48 10° NE
STARLINK 3.6 04:58:01 10° WSW 05:02:08 68° NW 05:06:16 10° NE
Cosmos 1933 3.3 04:58:27 10° N 05:02:30 88° E 05:06:30 10° S
Radarsat Rocket 4.4 04:56:59 10° NNE 05:02:47 67° ESE 05:08:43 10° S
Cosmos 1980 Rocket 3.8 05:01:50 13° W 05:02:48 14° W 05:05:37 10° SW
Cosmos 1802 Rocket 4.3 04:56:54 10° SSW 05:03:05 48° WNW 05:09:17 10° N
STARLINK-67 3.8 05:01:47 13° NNW 05:03:49 32° NNE 05:06:14 10° E
STARLINK-72 3.6 04:59:49 10° WSW 05:03:56 63° NW 05:08:03 10° NE
ALOS 2.4 05:01:36 10° N 05:06:09 52° WNW 05:10:40 10° SSW
Cosmos 2151 4.0 05:03:24 10° SW 05:06:55 24° WNW 05:10:28 10° NNW
STARLINK-59 3.7 05:03:16 10° WSW 05:07:20 57° NNW 05:11:27 10° NE
BREEZE-M DEB (TANK) 4.0 05:05:33 15° W 05:07:45 36° SSW 05:14:07 10° SE
Cosmos 2322 Rocket 2.4 05:02:21 10° NNW 05:07:50 52° WSW 05:13:18 10° S
Cosmos 1766 Rocket 4.5 05:04:15 10° SW 05:07:53 26° WNW 05:11:33 10° NNW
Meteor 2-3 Rocket 4.0 05:02:52 10° S 05:08:36 77° E 05:14:24 10° NNE
STARLINK-57 3.7 05:04:58 10° WSW 05:09:03 56° NNW 05:13:09 10° NE
Cosmos 1408 3.4 05:08:23 10° SW 05:11:38 29° WNW 05:14:53 10° NNW
STARLINK-28 3.8 05:08:18 10° WSW 05:12:21 53° NNW 05:16:25 10° NE
SMAP 4.1 05:08:09 10° NNE 05:12:42 50° E 05:17:13 10° S
STARLINK-53 3.8 05:09:00 10° WSW 05:13:03 52° NNW 05:17:08 10° NE
STARLINK-75 3.9 05:09:55 10° WSW 05:13:55 47° NNW 05:17:56 10° NE
Lacrosse 5 rocket 3.3 05:12:21 10° NNW 05:14:42 16° NNE 05:17:02 10° ENE
STARLINK-54 3.9 05:11:39 10° WSW 05:15:41 50° NNW 05:19:45 10° NE
SJ 16-02 3.2 05:14:55 11° WNW 05:16:04 12° NW 05:17:44 10° NNW
COSMO-SKYMED 1 3.6 05:12:49 10° SSW 05:16:24 25° W 05:20:00 10° NW
Cosmos 2061 Rocket 4.3 05:11:13 10° SSW 05:17:05 42° WNW 05:22:57 10° N
STARLINK-37 4.0 05:16:10 10° WSW 05:20:11 46° NNW 05:24:13 10° NE
STARLINK-55 3.9 05:16:35 10° WSW 05:20:36 47° NNW 05:24:38 10° NE
STARLINK-24 4.0 05:18:04 10° WSW 05:22:04 46° NNW 05:26:06 10° NE
STARLINK-34 4.0 05:18:22 10° WSW 05:22:21 45° NNW 05:26:21 10° NE
Shenzhou-11 Module 2.7 05:19:57 10° W 05:22:28 35° SSW 05:24:59 10° SE
STARLINK-81 3.9 05:19:49 10° WSW 05:23:50 47° NNW 05:27:51 10° NE
STARLINK-77 4.0 05:23:10 10° WSW 05:27:10 45° NNW 05:31:10 10° NE
Helios 1A Rocket 3.6 05:24:04 10° N 05:27:44 32° WNW 05:31:22 10° SW
ATLAS 2AS CENTAUR R/B 3.1 05:21:24 10° NW 05:28:37 50° WSW 05:35:12 10° S
STARLINK-25 4.0 05:24:56 10° WSW 05:28:54 44° NNW 05:32:54 10° NE
STARLINK-71 4.2 05:26:52 10° W 05:30:47 40° NNW 05:34:43 10° NE
